Hourly Data Report for July 15, 2021

POND INLET A
NUNAVUT
Current Station Operator: NAVCAN

72°41'22.000" N
77°58'08.000" W
61.60 m
2403206
71095
YIO

Download Data

Hourly Data (July 2021)
Hourly Data Report for July 15, 2021
TIME
LST
Temp Definition
°C
Dew Point Definition
°C
Rel Hum Definition
%
Precip. Amount Definition
mm

Wind Dir Definition
10's deg

Wind Spd Definition
km/h
Visibility Definition
km
Stn Press Definition
kPa
Hmdx Definition


Wind Chill Definition


Weather Definition


00:00 5.8 1.0 71 0.0 21 22 16.1 99.13     LegendNANA
01:00 5.6 0.4 69 0.0 18 24 16.1 99.15     LegendNANA
02:00 5.5 1.0 73 0.0 22 17 16.1 99.22     LegendNANA
03:00 3.9 0.3 78 0.0 34 11 16.1 99.22     LegendNANA
04:00 4.3 0.5 76 0.0   0 16.1 99.26     LegendNANA
05:00 5.3 0.9 73 0.0 LegendMM 4 16.1 99.25     LegendNANA
06:00 5.1 0.7 73 0.0 LegendMM 4 16.1 99.25     LegendNANA
07:00 6.0 0.8 69 0.0 LegendMM 4 16.1 99.23     LegendNANA
08:00 5.6 0.8 71 0.0 LegendMM 4 16.1 99.23     LegendNANA
09:00 5.6 0.8 71 0.0 LegendMM 9 16.1 99.21     LegendNANA
10:00 4.1 1.1 81 0.0 1 11 16.1 99.19     Rain
11:00 4.5 2.6 87 1.2 6 5 16.1 99.19     Rain
12:00 3.9 2.5 91 0.8 4 13 16.1 99.14     Rain
13:00 4.2 3.1 93 1.0 5 13 16.1 99.13     Rain
14:00 3.8 2.9 94 0.8 5 13 16.1 99.08     Rain
15:00 3.6 2.6 93 0.5 5 15 16.1 99.02     Rain
16:00 3.7 2.8 94 0.5 5 17 16.1 98.97     Rain
17:00 3.9 2.8 93 0.0 4 15 16.1 98.91     LegendNANA
18:00 3.8 2.7 92 0.0 5 13 16.1 98.85     LegendNANA
19:00 3.4 2.4 93 0.0 3 4 16.1 98.79     LegendNANA
20:00 4.6 3.7 94 0.0 LegendMM 4 16.1 98.73     LegendNANA
21:00 1.5 1.2 98 0.0 23 11 1.0 98.72     Fog
22:00 2.1 1.8 98 0.0 22 15 16.1 98.71     LegendNANA
23:00 2.5 2.1 97 0.0 22 17 16.1 98.70     LegendNANA

Notes on Data Quality.

Legend

  • E = Estimated
  • M = Missing
  • NA = Not Available*
  • [empty] = Indicates an unobserved value
Date modified: